User: anonymous   Login
Location: Unspecified
(53.6186°N, 1.3184°W)
Time: 01:44:49
(UTC+00:00)
Language:

ISS - Orbit

View from above orbital plane
View from above orbital plane
View from above satellite
View from above satellite

Ground track
Ground track

The orbit data is extracted from the following two-line orbital elements,

1 25544U 98067A   17350.65093719  .00016717  00000-0  10270-3 0  9058
2 25544  51.6367 208.7158 0002931 244.4617 115.6233 15.54144599 10126
Epoch (UTC): 16 December 2017 15:37:20
Eccentricity: 0.0002931
inclination: 51.6367°
perigee height: 402 km
apogee height: 406 km
right ascension of ascending node: 208.7158°
argument of perigee: 244.4617°
revolutions per day: 15.54144599
mean anomaly at epoch: 115.6233°
orbit number at epoch: 1012

The dashed part of the orbit path shows where the satellite is in the earth's shadow,  

DLR